Location: Rancho Del Sol Observatory
(38.7214°N, 120.6350°W)
Time: 13:16:31
(UTC-08:00)

Vanguard 2 Rocket - All Passes

Search period start: 26 January 2020 00:00
Search period end: 05 February 2020 00:00
Orbit: 554 x 3326 km, 32.9° (Epoch: 26 January)

Date Brightness Start Highest point End Pass type
(mag) Time Alt. Az. Time Alt. Az. Time Alt. Az.
26 Jan - 04:48:38 10° SW 04:52:21 33° SSE 04:57:18 10° E visible
26 Jan - 07:00:00 10° WSW 07:04:56 50° S 07:13:07 10° ESE daylight
26 Jan - 09:12:07 10° W 09:18:34 37° SSW 09:29:13 10° SE daylight
26 Jan - 11:26:49 10° WSW 11:33:21 18° SSW 11:42:02 10° S daylight
27 Jan - 03:50:12 10° SSW 03:53:20 22° SSE 03:56:54 10° ESE visible
27 Jan - 06:01:16 10° WSW 06:05:34 47° S 06:12:06 10° ESE visible
27 Jan - 08:13:07 10° W 08:18:41 40° SSW 08:27:58 10° SE daylight
27 Jan - 10:26:31 10° WSW 10:32:55 22° SSW 10:42:08 10° SSE daylight
28 Jan - 02:52:06 10° S 02:54:18 14° SSE 02:56:31 10° ESE night (unlit)
28 Jan - 05:02:33 10° WSW 05:06:22 40° S 05:11:31 10° ESE visible
28 Jan - 07:14:15 10° WSW 07:19:05 43° S 07:26:53 10° ESE daylight
28 Jan - 09:26:53 10° WSW 09:32:46 26° SSW 09:41:40 10° SSE daylight
29 Jan - 04:03:49 10° SW 04:07:18 31° SSE 04:11:21 10° ESE visible
29 Jan - 06:15:28 10° WSW 06:19:42 44° S 06:26:04 10° ESE visible
29 Jan - 08:27:40 10° WSW 08:32:53 29° SSW 08:40:59 10° SE daylight
29 Jan - 10:43:12 10° SW 10:47:11 13° SSW 10:52:02 10° S daylight
30 Jan - 03:05:04 10° SW 03:08:16 22° SSE 03:11:28 10° ESE visible
30 Jan - 05:16:39 10° WSW 05:20:29 42° S 05:25:37 10° ESE visible
30 Jan - 07:28:40 10° WSW 07:33:15 33° SSW 07:40:19 10° SE daylight
30 Jan - 09:42:30 10° WSW 09:47:02 16° SSW 09:53:00 10° S daylight
31 Jan - 02:06:22 10° SSW 02:09:09 16° SSE 02:11:41 10° ESE night (unlit)
31 Jan - 04:17:44 10° WSW 04:21:22 37° S 04:25:35 10° ESE visible
31 Jan - 06:29:46 10° WSW 06:33:51 36° S 06:39:48 10° SE visible
31 Jan - 08:42:44 10° WSW 08:47:08 20° SSW 08:53:14 10° SSE daylight
01 Feb - 01:07:56 10° S 01:09:54 12° SSE 01:11:41 10° SE night (unlit)
01 Feb - 03:18:41 10° SW 03:22:19 31° S 03:25:55 10° ESE visible
01 Feb - 05:30:52 10° WSW 05:34:37 37° S 05:39:35 10° ESE visible
01 Feb - 07:43:23 10° WSW 07:47:29 23° SSW 07:53:13 10° SSE daylight
02 Feb - 02:19:28 10° SW 02:23:13 25° SSE 02:26:30 10° ESE night (unlit)
02 Feb - 04:31:50 10° WSW 04:35:30 38° S 04:39:42 10° ESE visible
02 Feb - 06:44:16 10° WSW 06:48:02 26° SSW 06:53:11 10° SE daylight
02 Feb - 08:59:41 10° SW 09:01:25 11° SSW 09:03:19 10° S daylight
03 Feb - 01:20:06 10° SSW 01:24:01 21° SSE 01:27:12 10° ESE night (unlit)
03 Feb - 03:32:37 10° WSW 03:36:25 36° S 03:40:09 10° ESE visible
03 Feb - 05:45:13 10° WSW 05:48:46 29° S 05:53:18 10° SE visible
03 Feb - 07:59:00 10° SW 08:01:42 14° SSW 08:04:58 10° S daylight
04 Feb - 00:20:40 10° SSW 00:24:40 17° SSE 00:27:50 10° ESE night (unlit)
04 Feb - 02:33:08 10° WSW 02:37:20 33° S 02:40:54 10° ESE night (unlit)
04 Feb - 04:46:05 10° WSW 04:49:38 33° S 04:53:39 10° ESE visible
04 Feb - 06:59:16 10° WSW 07:02:13 16° SSW 07:05:51 10° SSE daylight
04 Feb - 23:21:23 10° S 23:25:08 14° SSE 23:28:11 10° SE night (unlit)
